Tracking 20628 objects as of 5-Apr-2020
HD Live streaming from Space Station
objects crossing your sky now

ARIANE 2 DEB

Track ARIANE 2 DEB now!


NORAD ID: 27595
Int'l Code: 1988-040E
Perigee: 498.8 km
Apogee: 35,418.9 km
Inclination: 7.1 °
Period: 629.5 minutes
Semi major axis: 24329 km
RCS: 8.9719 m2 (large)
Launch date: May 17, 1988
Source: France (FR)
Launch site: FRENCH GUIANA (FRGUI)

Note: This is SATELLITE DEBRIS
aabbcc
Your satellite tracking list
Your tracking list is empty




NASA's NSSDC Master Catalog

Two Line Element Set (TLE):
1 27595U 88040E   20095.45287516 -.00000024 +00000-0 -48790-3 0  9991
2 27595 007.0585 159.8297 7176390 144.5339 296.4148 02.28767594147712
Source of the keplerian elements: AFSPC